Latest Weather Observations for Creal Reef

IDQ60801

Issued at 3:35 pm EST Thursday 17 April 2014 (issued every 30 minutes, with the page automatically refreshed every 10 minutes)

About weather observations | Map of weather stations | Latest weather observations for QLD | Other Formats
Station Details ID: 200736 Name: CREAL REEF Lat: -20.53 Lon: 150.38 Height: 1.7 m
Data from the previous 72 hours. | See also: Recent months for locations in Queensland
Date/Time
EST
Temp
°C
App
Temp
°C
Dew
Point
Rel
Hum
%
Delta-T
°C
Wind Press
QNH
hPa
Press
MSL
hPa
Rain
since 9 am
mm
Dir
 
Spd
km/h
Gust
km/h
Spd
kts
Gust
kts
17/03:30pm 25.8 - - - - SE 19 24 10 13 1014.1 - -
17/03:20pm 25.8 - - - - SE 19 20 10 11 1014.2 1014.1 -
17/03:00pm 25.8 - - - - SE 20 26 11 14 1014.2 - -
17/02:30pm 25.8 - - - - SE 20 24 11 13 1014.4 - -
17/02:20pm 25.8 - - - - ESE 19 - 10 - - 1014.3 -
17/02:00pm 25.7 - - - - ESE 20 24 11 13 1014.4 - -
17/01:30pm 25.7 - - - - ESE 19 22 10 12 1014.6 - -
17/01:20pm 25.8 - - - - ESE 20 - 11 - - 1014.7 -
17/01:00pm 25.7 - - - - ESE 20 26 11 14 1015.0 - -
17/12:30pm 25.7 - - - - ESE 20 24 11 13 1015.3 - -
17/12:20pm 25.8 - - - - ESE 20 - 11 - - 1015.4 -
17/12:00pm 25.8 - - - - ESE 20 26 11 14 1015.6 - -
17/11:30am 25.9 - - - - ESE 22 28 12 15 1016.1 - -
17/11:20am 25.9 - - - - ESE 24 - 13 - - 1016.2 -
17/11:00am 25.8 - - - - ESE 20 26 11 14 1016.6 - -
17/10:30am 25.9 - - - - ESE 20 26 11 14 1016.9 - -
17/10:20am 25.9 - - - - ESE 20 - 11 - - 1016.8 -
17/10:00am 26.0 - - - - ESE 20 24 11 13 1017.0 - -
17/09:30am 26.0 - - - - ESE 24 28 13 15 1017.0 - -
17/09:20am 25.9 - - - - ESE 24 - 13 - - 1016.9 -
17/09:00am 26.0 - - - - E 22 26 12 14 1016.9 - -
17/08:30am 25.9 - - - - ESE 24 28 13 15 1016.5 - -
17/08:20am 25.9 - - - - ESE 24 - 13 - - 1016.2 -
17/08:00am 25.8 - - - - ESE 26 30 14 16 1016.2 - -
17/07:30am 25.9 - - - - E 24 28 13 15 1015.8 - -
17/07:20am 26.0 - - - - E 24 - 13 - - 1015.7 -
17/07:00am 25.7 - - - - ESE 24 28 13 15 1015.5 - -
17/06:30am 25.6 - - - - E 22 26 12 14 1015.1 - -
17/06:20am 25.6 - - - - ESE 22 - 12 - - 1014.8 -
17/06:00am 25.6 - - - - ESE 20 24 11 13 1014.7 - -
17/05:30am 25.6 - - - - E 22 26 12 14 1014.4 - -
17/05:20am 25.6 - - - - ESE 22 - 12 - - 1014.3 -
17/05:00am 25.6 - - - - E 22 26 12 14 1014.3 - -
17/04:30am 25.5 - - - - ESE 22 26 12 14 1014.2 - -
17/04:20am 25.5 - - - - ESE 22 - 12 - - 1014.1 -
17/04:00am 25.5 - - - - E 24 26 13 14 1014.1 - -
17/03:30am 25.5 - - - - E 20 24 11 13 1014.1 - -
17/03:20am 25.5 - - - - E 20 - 11 - - 1014.1 -
17/03:00am 25.5 - - - - ESE 22 28 12 15 1014.2 - -
17/02:30am 25.5 - - - - E 22 26 12 14 1014.2 - -
17/02:20am 25.4 - - - - E 22 - 12 - - 1014.1 -
17/02:00am 25.4 - - - - ESE 22 26 12 14 1014.3 - -
17/01:30am 25.5 - - - - ESE 22 26 12 14 1014.5 - -
17/01:20am 25.5 - - - - ESE 22 - 12 - - 1014.5 -
17/01:00am 25.5 - - - - E 20 24 11 13 1014.7 - -
17/12:30am 25.5 - - - - E 22 26 12 14 1014.7 - -
17/12:20am 25.5 - - - - E 22 - 12 - - 1014.6 -
17/12:00am 25.5 - - - - E 22 26 12 14 1014.6 - -
 
Date/Time
EST
Temp
°C
App
Temp
°C
Dew
Point
Rel
Hum
%
Delta-T
°C
Wind Press
QNH
hPa
Press
MSL
hPa
Rain
since 9 am
mm
Dir
 
Spd
km/h
Gust
km/h
Spd
kts
Gust
kts
16/11:30pm 25.6 - - - - E 24 28 13 15 1014.7 - -
16/11:20pm 25.6 - - - - E 24 - 13 - - 1014.6 -
16/11:00pm 25.7 - - - - E 22 28 12 15 1014.8 - -
16/10:30pm 25.6 - - - - E 26 30 14 16 1015.0 - -
16/10:20pm 25.6 - - - - E 24 - 13 - - 1014.9 -
16/10:00pm 25.6 - - - - E 26 28 14 15 1015.0 - -
16/09:30pm 25.6 - - - - E 24 28 13 15 1015.1 - -
16/09:20pm 25.6 - - - - E 26 - 14 - - 1015.0 -
16/09:00pm 25.6 - - - - E 26 32 14 17 1015.0 - -
16/08:30pm 25.6 - - - - E 26 30 14 16 1014.8 - -
16/08:20pm 25.6 - - - - ESE 26 - 14 - - 1014.6 -
16/08:00pm 25.6 - - - - ESE 24 28 13 15 1014.7 - -
16/07:30pm 25.6 - - - - ESE 24 28 13 15 1014.4 - -
16/07:20pm 25.5 - - - - ESE 22 - 12 - - 1014.2 -
16/07:00pm 25.6 - - - - ESE 22 26 12 14 1014.1 - -
16/06:30pm 25.5 - - - - ESE 22 26 12 14 1013.7 - -
16/06:20pm 25.5 - - - - ESE 24 - 13 - - 1013.6 -
16/06:00pm 25.6 - - - - ESE 22 26 12 14 1013.5 - -
16/05:30pm 25.7 - - - - SE 22 26 12 14 1013.5 - -
16/05:20pm 25.7 - - - - SE 24 - 13 - - 1013.3 -
16/05:00pm 25.8 - - - - SE 24 30 13 16 1013.3 - -
16/04:30pm 25.9 - - - - SE 24 28 13 15 1013.1 - -
16/04:20pm 25.8 - - - - SE 24 - 13 - - 1012.9 -
16/04:00pm 25.9 - - - - SE 22 26 12 14 1012.8 - -
16/03:30pm 25.8 - - - - SE 22 26 12 14 1012.7 - -
16/03:20pm 25.8 - - - - SE 22 - 12 - - 1012.7 -
16/03:00pm 25.7 - - - - SE 22 26 12 14 1012.7 - -
16/02:30pm 25.7 - - - - ESE 22 24 12 13 1012.8 - -
16/02:20pm 25.8 - - - - ESE 22 - 12 - - 1012.7 -
16/02:00pm 25.8 - - - - ESE 22 26 12 14 1013.0 - -
16/01:30pm 25.9 - - - - ESE 24 26 13 14 1013.3 - -
16/01:20pm 25.8 - - - - ESE 24 - 13 - - 1013.2 -
16/01:00pm 25.8 - - - - ESE 24 28 13 15 1013.3 - -
16/12:30pm 25.8 - - - - ESE 22 26 12 14 1013.8 - -
16/12:20pm 25.8 - - - - ESE 22 - 12 - - 1013.8 -
16/12:00pm 25.9 - - - - ESE 22 26 12 14 1014.1 - -
16/11:30am 26.0 - - - - E 22 28 12 15 1014.5 - -
16/11:20am 25.9 - - - - E 24 - 13 - - 1014.5 -
16/11:00am 26.0 - - - - ESE 22 28 12 15 1014.6 - -
16/10:30am 26.0 - - - - E 24 28 13 15 1014.7 - -
16/10:20am 26.0 - - - - E 26 - 14 - - 1014.7 -
16/10:00am 25.9 - - - - E 28 30 15 16 1015.1 - -
16/09:30am 25.9 - - - - E 28 32 15 17 1015.2 - -
16/09:20am 25.9 - - - - E 26 - 14 - - 1015.3 -
16/09:00am 25.9 - - - - ESE 26 30 14 16 1015.4 - -
16/08:30am 25.9 - - - - ESE 24 28 13 15 1015.3 - -
16/08:20am 25.9 - - - - SE 24 - 13 - - 1015.2 -
16/08:00am 25.8 - - - - ESE 22 26 12 14 1015.2 - -
16/07:30am 25.7 - - - - ESE 26 30 14 16 1015.0 - -
16/07:20am 25.5 - - - - ESE 24 - 13 - - 1014.7 -
16/07:00am 25.6 - - - - ESE 26 30 14 16 1014.5 - -
16/06:30am 25.6 - - - - SE 22 28 12 15 1014.2 - -
16/06:20am 25.5 - - - - ESE 24 - 13 - - 1014.0 -
16/06:00am 25.6 - - - - SE 24 30 13 16 1013.9 - -
16/05:30am 25.5 - - - - SE 24 28 13 15 1013.7 - -
16/05:20am 25.5 - - - - ESE 24 - 13 - - 1013.6 -
16/05:00am 25.5 - - - - ESE 24 28 13 15 1013.6 - -
16/04:30am 25.5 - - - - SE 24 28 13 15 1013.4 - -
16/04:20am 25.5 - - - - SE 26 - 14 - - 1013.3 -
16/04:00am 25.5 - - - - ESE 24 28 13 15 1013.3 - -
16/03:30am 25.5 - - - - ESE 28 32 15 17 1013.0 - -
16/03:20am 25.6 - - - - ESE 26 - 14 - - 1012.8 -
16/03:00am 25.6 - - - - ESE 28 32 15 17 1012.9 - -
16/02:30am 25.5 - - - - ESE 30 32 16 17 1012.8 - -
16/02:20am 25.5 - - - - ESE 30 - 16 - - 1012.7 -
16/02:00am 25.5 - - - - ESE 28 33 15 18 1012.8 - -
16/01:30am 25.4 - - - - ESE 28 32 15 17 1013.1 - -
16/01:20am 25.4 - - - - ESE 28 - 15 - - 1013.1 -
16/01:00am 25.3 - - - - ESE 30 33 16 18 1013.5 - -
16/12:30am 25.5 - - - - ESE 32 35 17 19 1013.7 - -
16/12:20am 25.3 - - - - ESE 33 - 18 - - 1013.6 -
16/12:00am 25.4 - - - - ESE 32 35 17 19 1013.9 - -
 
Date/Time
EST
Temp
°C
App
Temp
°C
Dew
Point
Rel
Hum
%
Delta-T
°C
Wind Press
QNH
hPa
Press
MSL
hPa
Rain
since 9 am
mm
Dir
 
Spd
km/h
Gust
km/h
Spd
kts
Gust
kts
15/11:30pm 25.7 - - - - ESE 30 33 16 18 1014.1 - -
15/11:20pm 25.6 - - - - ESE 32 - 17 - - 1014.0 -
15/11:00pm 25.6 - - - - ESE 30 33 16 18 1014.2 - -
15/10:30pm 25.5 - - - - SE 32 35 17 19 1014.4 - -
15/10:20pm 25.5 - - - - ESE 30 - 16 - - 1014.3 -
15/10:00pm 25.6 - - - - SE 32 35 17 19 1014.4 - -
15/09:30pm 25.7 - - - - SE 30 35 16 19 1014.3 - -
15/09:20pm 25.6 - - - - SE 30 - 16 - - 1014.1 -
15/09:00pm 25.5 - - - - SE 32 35 17 19 1014.1 - -
15/08:30pm 25.5 - - - - SSE 30 35 16 19 1013.9 - -
15/08:20pm 25.6 - - - - SSE 32 - 17 - - 1013.8 -
15/08:00pm 25.4 - - - - SSE 32 39 17 21 1013.8 - -
15/07:30pm 25.5 - - - - SSE 30 37 16 20 1013.5 - -
15/07:20pm 25.5 - - - - SSE 28 - 15 - - 1013.3 -
15/07:00pm 25.3 - - - - SSE 28 35 15 19 1013.1 - -
15/06:30pm 25.5 - - - - SSE 32 35 17 19 1012.8 - -
15/06:20pm 25.4 - - - - SSE 33 - 18 - - 1012.5 -
15/06:00pm 25.1 - - - - SSE 28 33 15 18 1012.5 - -
15/05:30pm 25.0 - - - - S 30 33 16 18 1012.5 - -
15/05:20pm 25.2 - - - - SSE 32 - 17 - - 1012.2 -
15/05:00pm 25.6 - - - - SSE 26 33 14 18 1012.1 - -
15/04:30pm 25.7 - - - - SSE 26 32 14 17 1011.9 - -
15/04:20pm 25.8 - - - - SSE 28 - 15 - - 1011.6 -
15/04:00pm 25.7 - - - - SSE 24 32 13 17 1011.4 - -
15/03:30pm 25.8 - - - - SSE 26 30 14 16 1011.3 - -
15/03:20pm 25.8 - - - - SSE 24 - 13 - - 1011.2 -
15/03:00pm 25.8 - - - - SSE 26 32 14 17 1011.3 - -
15/02:30pm 25.8 - - - - SSE 22 28 12 15 1011.3 - -
15/02:20pm 25.8 - - - - SSE 22 - 12 - - 1011.3 -
15/02:00pm 26.0 - - - - SSE 24 28 13 15 1011.5 - -
15/01:30pm 25.8 - - - - SSE 24 30 13 16 1011.6 - -
15/01:20pm 25.7 - - - - SSE 24 - 13 - - 1011.5 -
15/01:00pm 25.5 - - - - SSE 28 32 15 17 1011.9 - -
15/12:30pm 25.8 - - - - SSE 22 30 12 16 1012.3 - -
15/12:20pm 25.9 - - - - SSE 22 - 12 - - 1012.2 -
15/12:00pm 25.7 - - - - SSE 28 32 15 17 1012.5 - -
15/11:30am 25.6 - - - - SSE 30 33 16 18 1012.7 - -
15/11:20am 25.5 - - - - SE 28 - 15 - - 1012.8 -
15/11:00am 25.5 - - - - SSE 28 32 15 17 1013.2 - -
15/10:30am 25.6 - - - - SE 28 32 15 17 1013.6 - -
15/10:20am 25.6 - - - - SSE 28 - 15 - - 1013.6 -
15/10:00am 25.5 - - - - SSE 24 35 13 19 1014.0 - -
15/09:30am 24.3 - - - - SSE 33 41 18 22 1014.0 - -
15/09:20am 25.6 - - - - SSE 24 - 13 - - 1013.9 -
15/09:00am 25.9 - - - - SSE 22 28 12 15 1013.9 - -
15/08:30am 26.0 - - - - SSE 24 32 13 17 1013.6 - -
15/08:20am 25.9 - - - - SSE 26 - 14 - - 1013.5 -
15/08:00am 26.2 - - - - SSE 22 30 12 16 1013.4 - -
15/07:30am 26.0 - - - - SSE 26 32 14 17 1013.1 - -
15/07:20am 26.1 - - - - SSE 24 - 13 - - 1013.1 -
15/07:00am 25.9 - - - - SSE 24 32 13 17 1013.0 - -
15/06:30am 25.6 - - - - SE 28 33 15 18 1012.6 - -
15/06:20am 25.5 - - - - SE 28 - 15 - - 1012.4 -
15/06:00am 25.4 - - - - SSE 28 37 15 20 1012.2 - -
15/05:30am 25.5 - - - - SSE 32 39 17 21 1012.0 - -
15/05:20am 25.6 - - - - SE 35 - 19 - - 1011.8 -
15/05:00am 25.6 - - - - SSE 37 43 20 23 1011.6 - -
15/04:30am 25.5 - - - - SSE 35 41 19 22 1011.6 - -
15/04:20am 25.6 - - - - SSE 33 - 18 - - 1011.4 -
15/04:00am 25.6 - - - - SSE 30 37 16 20 1011.3 - -
15/03:30am 25.5 - - - - SSE 26 41 14 22 1011.1 - -
15/03:20am 25.2 - - - - SSE 22 - 12 - - 1011.0 -
15/03:00am 25.7 - - - - SSE 24 30 13 16 1011.0 - -
15/02:30am 25.8 - - - - SSE 22 30 12 16 1011.1 - -
15/02:20am 25.8 - - - - SSE 26 - 14 - - 1011.0 -
15/02:00am 25.7 - - - - SE 26 30 14 16 1011.3 - -
15/01:30am 25.9 - - - - SE 24 28 13 15 1011.5 - -
15/01:20am 25.8 - - - - SE 24 - 13 - - 1011.5 -
15/01:00am 26.1 - - - - SSE 19 22 10 12 1011.7 - -
15/12:30am 26.2 - - - - S 19 20 10 11 1011.9 - -
15/12:20am 26.2 - - - - S 19 - 10 - - 1011.8 -
15/12:00am 26.1 - - - - S 19 20 10 11 1012.0 - -
 
Date/Time
EST
Temp
°C
App
Temp
°C
Dew
Point
Rel
Hum
%
Delta-T
°C
Wind Press
QNH
hPa
Press
MSL
hPa
Rain
since 9 am
mm
Dir
 
Spd
km/h
Gust
km/h
Spd
kts
Gust
kts
14/11:30pm 26.1 - - - - S 19 20 10 11 1011.9 - -
14/11:20pm 26.2 - - - - S 19 - 10 - - 1011.8 -
14/11:00pm 26.2 - - - - S 17 20 9 11 1012.0 - -
14/10:30pm 26.2 - - - - S 19 20 10 11 1012.0 - -
14/10:20pm 26.2 - - - - S 19 - 10 - - 1011.8 -
14/10:00pm 26.3 - - - - S 20 24 11 13 1012.0 - -
14/09:30pm 26.3 - - - - S 20 24 11 13 1012.1 - -
14/09:20pm 26.2 - - - - S 20 - 11 - - 1011.9 -
14/09:00pm 26.4 - - - - S 22 24 12 13 1012.0 - -
14/08:30pm 26.4 - - - - S 24 28 13 15 1011.8 - -
14/08:20pm 26.3 - - - - S 24 - 13 - - 1011.5 -
14/08:00pm 26.3 - - - - S 26 30 14 16 1011.3 - -
14/07:30pm 26.3 - - - - S 28 32 15 17 1010.9 - -
14/07:20pm 26.2 - - - - SSW 24 - 13 - - 1010.7 -
14/07:00pm 26.1 - - - - SSW 28 33 15 18 1010.5 - -
14/06:30pm 26.1 - - - - S 30 35 16 19 1010.0 - -
14/06:20pm 26.1 - - - - SSW 30 - 16 - - 1009.7 -
14/06:00pm 25.9 - - - - S 26 30 14 16 1009.7 - -
14/05:30pm 25.7 - - - - SSW 30 32 16 17 1009.3 - -
14/05:20pm 25.7 - - - - SSW 30 - 16 - - 1009.1 -
14/05:00pm 25.6 - - - - SSW 32 35 17 19 1009.0 - -
14/04:30pm 25.6 - - - - SSW 32 37 17 20 1008.8 - -
14/04:20pm 25.5 - - - - SSW 32 - 17 - - 1008.7 -
14/04:00pm 25.6 - - - - SSW 33 39 18 21 1008.6 - -

Other Formats:

Comma delimited format used in spreadsheet applications
http://www.bom.gov.au/fwo/IDQ60801/IDQ60801.94371.axf

JavaScript Object Notation format (JSON) in row-major order
http://www.bom.gov.au/fwo/IDQ60801/IDQ60801.94371.json